Location: Proctor
(47.8934°N, 114.3048°W)
Time: 15:31:29
(UTC+00:00)

Courier 1B Rocket - Pass Details

Date: 21 June 2024
Orbit: 920 x 1201 km, 28.2° (Epoch: 16 July)

Event Time Altitude Azimuth Distance (km) Brightness Sun altitude
Rises 11:59:47 0° 230° (SW) 3,763 7.4 2.1°
Reaches altitude 10° 12:03:47 10° 208° (SSW) 2,874 7.0 2.7°
Maximum altitude 12:07:26 15° 176° (S) 2,584 7.0 3.2°
Drops below altitude 10° 12:11:12 10° 145° (SE) 2,984 7.6 3.7°
Sets 12:15:30 0° 123° (ESE) 3,999 8.6 4.3°
